Location: Dallas(GA)
(33.9240°N, 84.8410°W)
Time: 21:16:26
(UTC-04:00)

N. Korean satellite - Pass Details

Date: 02 October 2020
Orbit: 453 x 505 km, 97.2° (Epoch: 25 October)

Event Time Altitude Azimuth Distance (km) Brightness Sun altitude
Rises 06:09:47 0° 36° (NE) 2,540 10.9 -18.4°
Reaches altitude 10° 06:12:53 10° 66° (ENE) 1,642 10.4 -17.8°
Maximum altitude 06:14:30 13° 93° (E) 1,471 10.2 -17.5°
Drops below altitude 10° 06:16:06 10° 121° (ESE) 1,622 10.0 -17.1°
Sets 06:19:07 0° 151° (SSE) 2,480 10.5 -16.5°
